Stündliche Wetter Abanto

Heute, 28 Juli, Mittwoch

Zeit Temperatur Niederschläge Wind Luftdruck Luftfeuchtigkeit
00:00 +19°C° 0 mm 2 m/S 681 mmHg 66%
01:00 +18°C° 0 mm 2 m/S 681 mmHg 68%
02:00 +18°C° 0 mm 2 m/S 681 mmHg 71%
03:00 +17°C° 0 mm 2 m/S 681 mmHg 73%
04:00 +18°C° 0 mm 1 m/S 681 mmHg 73%
05:00 +18°C° 0 mm 1 m/S 681 mmHg 72%
06:00 +18°C° 0 mm 1 m/S 681 mmHg 72%
07:00 +20°C° 0 mm 1 m/S 681 mmHg 64%
08:00 +22°C° 0 mm 1 m/S 682 mmHg 57%
09:00 +24°C° 0 mm 1 m/S 682 mmHg 49%
10:00 +26°C° 0 mm 2 m/S 682 mmHg 43%
11:00 +28°C° 0 mm 3 m/S 682 mmHg 37%
12:00 +30°C° 0 mm 4 m/S 682 mmHg 31%
13:00 +32°C° 0 mm 4 m/S 682 mmHg 30%
14:00 +33°C° 0 mm 5 m/S 682 mmHg 29%
15:00 +33°C° 0 mm 5 m/S 682 mmHg 28%
16:00 +33°C° 0 mm 5 m/S 682 mmHg 29%
17:00 +32°C° 0 mm 5 m/S 682 mmHg 31%
18:00 +32°C° 0 mm 5 m/S 682 mmHg 32%
19:00 +29°C° 0 mm 5 m/S 682 mmHg 40%
20:00 +27°C° 0 mm 5 m/S 682 mmHg 47%
21:00 +23°C° 0 mm 4 m/S 682 mmHg 55%
22:00 +22°C° 0 mm 4 m/S 682 mmHg 59%
23:00 +21°C° 0 mm 3 m/S 682 mmHg 64%

Morgen, 29 Juli, Donnerstag

Zeit Temperatur Niederschläge Wind Luftdruck Luftfeuchtigkeit
00:00 +20°C° 0 mm 2 m/S 682 mmHg 68%
01:00 +20°C° 0 mm 2 m/S 681 mmHg 71%
02:00 +19°C° 0 mm 2 m/S 681 mmHg 74%
03:00 +18°C° 0 mm 2 m/S 681 mmHg 77%
04:00 +19°C° 0 mm 1 m/S 681 mmHg 76%
05:00 +20°C° 0 mm 1 m/S 681 mmHg 75%
06:00 +20°C° 0 mm 1 m/S 681 mmHg 74%
07:00 +22°C° 0 mm 1 m/S 682 mmHg 62%
08:00 +25°C° 0 mm 2 m/S 682 mmHg 50%
09:00 +28°C° 0 mm 2 m/S 682 mmHg 38%
10:00 +30°C° 0 mm 3 m/S 683 mmHg 31%
11:00 +33°C° 0 mm 4 m/S 683 mmHg 25%
12:00 +35°C° 0 mm 5 m/S 683 mmHg 19%
13:00 +36°C° 0 mm 6 m/S 682 mmHg 17%
14:00 +38°C° 0 mm 7 m/S 682 mmHg 15%
15:00 +38°C° 0 mm 8 m/S 682 mmHg 14%
16:00 +38°C° 0 mm 7 m/S 681 mmHg 14%
17:00 +36°C° 0 mm 7 m/S 681 mmHg 14%
18:00 +35°C° 0 mm 7 m/S 681 mmHg 15%
19:00 +33°C° 0 mm 6 m/S 681 mmHg 18%
20:00 +30°C° 0 mm 5 m/S 680 mmHg 21%
21:00 +27°C° 0 mm 3 m/S 680 mmHg 25%
22:00 +26°C° 0 mm 3 m/S 680 mmHg 28%
23:00 +25°C° 0 mm 3 m/S 680 mmHg 32%

übermorgen, 30 Juli, Freitag

Zeit Temperatur Niederschläge Wind Luftdruck Luftfeuchtigkeit
00:00 +24°C° 0 mm 2 m/S 680 mmHg 36%
01:00 +23°C° 0 mm 2 m/S 680 mmHg 39%
02:00 +21°C° 0 mm 2 m/S 680 mmHg 42%
03:00 +20°C° 0 mm 2 m/S 680 mmHg 45%
04:00 +20°C° 0 mm 2 m/S 680 mmHg 46%
05:00 +21°C° 0 mm 1 m/S 680 mmHg 47%
06:00 +21°C° 0 mm 1 m/S 681 mmHg 48%
07:00 +23°C° 0 mm 2 m/S 681 mmHg 42%
08:00 +25°C° 0 mm 2 m/S 682 mmHg 37%
09:00 +27°C° 0 mm 3 m/S 682 mmHg 31%
10:00 +29°C° 0 mm 3 m/S 682 mmHg 27%
11:00 +30°C° 0 mm 3 m/S 682 mmHg 22%
12:00 +33°C° 0 mm 4 m/S 682 mmHg 18%
13:00 +34°C° 0 mm 4 m/S 682 mmHg 16%
14:00 +34°C° 0 mm 5 m/S 681 mmHg 15%
15:00 +35°C° 0 mm 6 m/S 681 mmHg 14%
16:00 +34°C° 0 mm 6 m/S 681 mmHg 17%
17:00 +32°C° 0 mm 6 m/S 681 mmHg 21%
18:00 +30°C° 0 mm 6 m/S 681 mmHg 25%
19:00 +27°C° 0 mm 5 m/S 681 mmHg 35%
20:00 +23°C° 0 mm 4 m/S 681 mmHg 45%
21:00 +20°C° 0 mm 2 m/S 681 mmHg 55%
22:00 +19°C° 0 mm 2 m/S 681 mmHg 58%
23:00 +18°C° 0 mm 2 m/S 681 mmHg 62%

31 Juli, Samstag

Zeit Temperatur Niederschläge Wind Luftdruck Luftfeuchtigkeit
00:00 +18°C° 0 mm 1 m/S 680 mmHg 66%
01:00 +18°C° 0 mm 1 m/S 680 mmHg 68%
02:00 +16°C° 0 mm 1 m/S 680 mmHg 70%
03:00 +16°C° 0 mm 1 m/S 679 mmHg 73%
04:00 +16°C° 0 mm 1 m/S 679 mmHg 73%
05:00 +16°C° 0 mm 2 m/S 679 mmHg 73%
06:00 +16°C° 0 mm 2 m/S 679 mmHg 74%
07:00 +18°C° 0 mm 2 m/S 680 mmHg 65%
08:00 +20°C° 0 mm 3 m/S 680 mmHg 57%
09:00 +22°C° 0 mm 3 m/S 680 mmHg 48%
10:00 +23°C° 0 mm 4 m/S 680 mmHg 43%
11:00 +25°C° 0 mm 4 m/S 680 mmHg 38%
12:00 +27°C° 0 mm 5 m/S 680 mmHg 33%
13:00 +27°C° 0 mm 6 m/S 680 mmHg 33%
14:00 +27°C° 0 mm 7 m/S 680 mmHg 33%
15:00 +27°C° 0 mm 8 m/S 679 mmHg 33%
16:00 +24°C° 0.1 mm 8 m/S 680 mmHg 41%
17:00 +22°C° 0.1 mm 8 m/S 680 mmHg 49%
18:00 +18°C° 0.1 mm 8 m/S 680 mmHg 56%
19:00 +17°C° 0.1 mm 6 m/S 680 mmHg 60%
20:00 +17°C° 0.1 mm 4 m/S 680 mmHg 64%
21:00 +16°C° 0.1 mm 2 m/S 681 mmHg 67%
22:00 +15°C° 0 mm 2 m/S 680 mmHg 68%
23:00 +15°C° 0 mm 2 m/S 680 mmHg 69%

1 August, Sonntag

Zeit Temperatur Niederschläge Wind Luftdruck Luftfeuchtigkeit
00:00 +14°C° 0 mm 1 m/S 680 mmHg 69%
01:00 +13°C° 0 mm 1 m/S 680 mmHg 69%
02:00 +13°C° 0 mm 1 m/S 680 mmHg 69%
03:00 +13°C° 0 mm 1 m/S 680 mmHg 69%
04:00 +13°C° 0 mm 1 m/S 680 mmHg 68%
05:00 +12°C° 0 mm 0 m/S 680 mmHg 67%
06:00 +12°C° 0 mm 0 m/S 680 mmHg 66%
07:00 +13°C° 0 mm 0 m/S 680 mmHg 60%
08:00 +16°C° 0 mm 1 m/S 681 mmHg 54%
09:00 +18°C° 0 mm 1 m/S 681 mmHg 48%
10:00 +20°C° 0 mm 1 m/S 681 mmHg 42%
11:00 +21°C° 0 mm 2 m/S 681 mmHg 36%
12:00 +24°C° 0 mm 2 m/S 681 mmHg 29%
13:00 +25°C° 0 mm 3 m/S 681 mmHg 28%
14:00 +26°C° 0 mm 3 m/S 681 mmHg 27%
15:00 +27°C° 0 mm 4 m/S 681 mmHg 25%
16:00 +26°C° 0 mm 5 m/S 680 mmHg 27%
17:00 +25°C° 0 mm 5 m/S 680 mmHg 29%
18:00 +23°C° 0 mm 6 m/S 680 mmHg 31%
19:00 +22°C° 0 mm 5 m/S 680 mmHg 37%
20:00 +20°C° 0 mm 4 m/S 681 mmHg 43%
21:00 +18°C° 0 mm 4 m/S 681 mmHg 48%
22:00 +18°C° 0 mm 3 m/S 681 mmHg 50%
23:00 +17°C° 0 mm 2 m/S 680 mmHg 52%

2 August, Montag

Zeit Temperatur Niederschläge Wind Luftdruck Luftfeuchtigkeit
00:00 +17°C° 0 mm 2 m/S 680 mmHg 55%
01:00 +16°C° 0 mm 1 m/S 680 mmHg 56%
02:00 +15°C° 0 mm 1 m/S 680 mmHg 58%
03:00 +15°C° 0 mm 1 m/S 680 mmHg 59%
04:00 +15°C° 0 mm 1 m/S 680 mmHg 59%
05:00 +15°C° 0 mm 1 m/S 680 mmHg 58%
06:00 +15°C° 0 mm 1 m/S 680 mmHg 57%
07:00 +18°C° 0 mm 1 m/S 680 mmHg 52%
08:00 +20°C° 0 mm 1 m/S 680 mmHg 47%
09:00 +22°C° 0 mm 1 m/S 680 mmHg 42%
10:00 +24°C° 0 mm 2 m/S 680 mmHg 37%
11:00 +26°C° 0 mm 2 m/S 680 mmHg 33%
12:00 +27°C° 0 mm 3 m/S 680 mmHg 28%
13:00 +27°C° 0 mm 4 m/S 680 mmHg 27%
14:00 +27°C° 0 mm 4 m/S 679 mmHg 26%
15:00 +27°C° 0 mm 4 m/S 679 mmHg 26%
16:00 +27°C° 0 mm 4 m/S 679 mmHg 27%
17:00 +26°C° 0 mm 4 m/S 679 mmHg 29%
18:00 +25°C° 0 mm 4 m/S 679 mmHg 30%
19:00 +24°C° 0 mm 3 m/S 679 mmHg 35%
20:00 +21°C° 0 mm 3 m/S 679 mmHg 40%
21:00 +20°C° 0 mm 2 m/S 679 mmHg 44%
22:00 +18°C° 0 mm 2 m/S 679 mmHg 53%
23:00 +17°C° 0 mm 2 m/S 679 mmHg 61%
Mehr zeigen

Wir brauchen deine Erlaubnis

Meteoprog und unser Service Anbieter werden persönliche Daten aufbewahren, so wie Cookies, Geräte Bezeichnung oder ähnliche Technologien von deinem Gerät und Prozess, so wie Persönliche Daten Inhalte und Werbungen, genauso wie social Media und den Verkehr zu analysieren.

  • Aufbewahrung und/oder Zugang zu deiner Geräte Informationen.

    Cookies, Geräte Bezeichnung oder andere Informationen, können aufbewahrt oder Zugang zu deinem Gerät erhalten, für den Grund, der oben angegeben wird.

  • Personalisierte Werbung und Inhalte, Messungen, Einblick in das Publikum und Produkt Entwicklung.

    Werbungen und Inhalte können personalisiert werden, basierend auf ein Profil. Mehr Daten können besser personalisierte Werbungen und Inhalte hinzufügen. Werbung und Inhalte können gezeigt und gemessen werden. Einblicke über das Publikum, welche die Werbung gesehen haben und den Inhalt, können abgeleitet werden. So wie Daten können genutzt werden, um es zu verbessern oder die Benutzer Erfahrung zu verbessern das System und die Software.

Wenn du “Ich stimme zu” klickst, erlaubst du uns, die Cookies zu benutzen die Geräte Bezeichnung, den Web oder ähnliche Technologien zu benutzen. Deine Settings, können in deinem Gerät bei deinem Browser geändert werden.

Für den bestimmten Zweck, berechtigten Interessen beruhen darauf, mehr als auf den Inhalt. Du kannst mehr darüber in unseren Privaten und Cookie Politik lesen.